This is the latest recevied weather packets stored in our database for station/object N4LLZ-13. If no packets are shown the sender has not sent any weather packets the latest 10 day(s).
| Time | Temp. | Humidity | Pressure | Rain* | Wind** | Luminosity | Snow |
|---|---|---|---|---|---|---|---|
| 1787854957 | 31.67° C | 57% | 1014.9 hPa | 0 mm | - | - | - |
| 1787854656 | 31.11° C | 59% | 1015 hPa | 0 mm | - | - | - |
| 1787854355 | 31.67° C | 60% | 1015 hPa | 0 mm | - | - | - |
| 1787854054 | 32.22° C | 58% | 1015.1 hPa | 0 mm | - | - | - |
| 1787853753 | 32.22° C | 57% | 1015.1 hPa | 0 mm | - | - | - |
| 1787853453 | 32.22° C | 57% | 1015.3 hPa | 0 mm | - | - | - |
| 1787853152 | 31.67° C | 58% | 1015.4 hPa | 0 mm | - | - | - |
| 1787852851 | 31.67° C | 59% | 1015.4 hPa | 0 mm | - | - | - |
| 1787852550 | 31.11° C | 61% | 1015.5 hPa | 0 mm | - | - | - |
| 1787852249 | 31.67° C | 59% | 1015.6 hPa | 0 mm | - | - | - |
| 1787851948 | 31.11° C | 60% | 1015.6 hPa | 0 mm | - | - | - |
| 1787851648 | 31.11° C | 60% | 1015.7 hPa | 0 mm | - | - | - |
| 1787851347 | 31.11° C | 62% | 1015.8 hPa | 0 mm | - | - | - |
| 1787851047 | 31.11° C | 63% | 1015.8 hPa | 0 mm | - | - | - |
| 1787850746 | 31.11° C | 60% | 1015.9 hPa | 0 mm | - | - | - |
| 1787850445 | 31.11° C | 61% | 1015.9 hPa | 0 mm | - | - | - |
| 1787850145 | 31.11° C | 59% | 1016 hPa | 0 mm | - | - | - |
| 1787849844 | 31.11° C | 61% | 1016 hPa | 0 mm | - | - | - |
| 1787849543 | 31.11° C | 61% | 1016.1 hPa | 0 mm | - | - | - |
| 1787849242 | 31.11° C | 61% | 1016.1 hPa | 0 mm | - | - | - |
| 1787848941 | 31.11° C | 61% | 1016 hPa | 0 mm | - | - | - |
| 1787848640 | 31.11° C | 62% | 1016.1 hPa | 0 mm | - | - | - |
| 1787848340 | 30.56° C | 62% | 1016.1 hPa | 0 mm | - | - | - |
| 1787848039 | 30.56° C | 65% | 1016.1 hPa | 0 mm | - | - | - |
| 1787847738 | 30.56° C | 63% | 1016.1 hPa | 0 mm | - | - | - |
* Rain latest hour (hover to see other rain measurements)
** Current wind speed in m/s (hover to see current wind gust speed)